Time,TemperatureF,DewpointF,PressureIn,WindDirection,WindDirectionDegrees,WindSpeedMPH,WindSpeedGustMPH,Humidity,HourlyPrecipIn,Conditions,Clouds,dailyrainin,SoftwareType,DateUTC
2013-05-30 00:14:00,76.5,75.9,29.70,SSE,157,2.7,-999.0,98,-99.99,,,0.00,Acu-Link.com,2013-05-30 05:14:00,
2013-05-30 00:29:00,76.8,76.2,29.69,SSW,202,2.7,-999.0,98,-99.99,,,0.00,Acu-Link.com,2013-05-30 05:29:00,
2013-05-30 00:44:00,77.0,76.4,29.69,SW,225,1.7,-999.0,98,-99.99,,,0.00,Acu-Link.com,2013-05-30 05:44:00,
2013-05-30 00:59:00,77.2,76.6,29.69,West,270,2.7,-999.0,98,-99.99,,,0.00,Acu-Link.com,2013-05-30 05:59:00,
2013-05-30 01:14:00,77.0,76.4,29.68,WSW,247,2.7,-999.0,98,-99.99,,,0.00,Acu-Link.com,2013-05-30 06:14:00,
2013-05-30 01:29:00,77.4,76.8,29.68,ESE,112,3.2,-999.0,98,-99.99,,,0.00,Acu-Link.com,2013-05-30 06:29:00,
2013-05-30 01:44:00,77.2,76.6,29.67,ESE,112,4.7,-999.0,98,-99.99,,,0.00,Acu-Link.com,2013-05-30 06:44:00,
2013-05-30 02:14:00,77.4,76.8,29.68,South,180,3.2,-999.0,98,-99.99,,,0.00,Acu-Link.com,2013-05-30 07:14:00,
2013-05-30 02:30:00,77.4,76.8,29.67,East,90,3.7,-999.0,98,-99.99,,,0.00,Acu-Link.com,2013-05-30 07:30:00,
2013-05-30 02:45:00,77.5,76.9,29.67,ESE,112,6.8,-999.0,98,-99.99,,,0.00,Acu-Link.com,2013-05-30 07:45:00,
2013-05-30 03:00:00,77.5,76.9,29.67,East,90,6.8,-999.0,98,-99.99,,,0.00,Acu-Link.com,2013-05-30 08:00:00,
2013-05-30 03:16:00,77.5,76.9,29.67,ESE,112,2.2,-999.0,98,-99.99,,,0.00,Acu-Link.com,2013-05-30 08:16:00,
2013-05-30 03:31:00,77.5,76.9,29.66,SW,225,3.7,-999.0,98,-99.99,,,0.00,Acu-Link.com,2013-05-30 08:31:00,
2013-05-30 03:46:00,77.5,76.9,29.66,ESE,112,2.2,-999.0,98,-99.99,,,0.00,Acu-Link.com,2013-05-30 08:46:00,
2013-05-30 04:02:00,77.5,76.9,29.67,East,90,6.8,-999.0,98,-99.99,,,0.00,Acu-Link.com,2013-05-30 09:02:00,
2013-05-30 04:17:00,77.4,76.8,29.67,South,180,3.2,-999.0,98,-99.99,,,0.00,Acu-Link.com,2013-05-30 09:17:00,
2013-05-30 04:32:00,77.5,76.9,29.67,South,180,2.2,-999.0,98,-99.99,,,0.00,Acu-Link.com,2013-05-30 09:32:00,
2013-05-30 04:47:00,77.5,76.9,29.66,South,180,1.7,-999.0,98,-99.99,,,0.00,Acu-Link.com,2013-05-30 09:47:00,
2013-05-30 05:02:00,77.4,76.8,29.66,SE,135,3.2,-999.0,98,-99.99,,,0.00,Acu-Link.com,2013-05-30 10:02:00,
2013-05-30 05:17:00,77.4,76.8,29.66,South,180,2.7,-999.0,98,-99.99,,,0.00,Acu-Link.com,2013-05-30 10:17:00,
2013-05-30 05:33:00,77.4,76.8,29.66,SW,225,2.7,-999.0,98,-99.99,,,0.00,Acu-Link.com,2013-05-30 10:33:00,
2013-05-30 05:48:00,77.2,76.6,29.67,SSE,157,3.7,-999.0,98,-99.99,,,0.00,Acu-Link.com,2013-05-30 10:48:00,
2013-05-30 06:03:00,76.6,76.0,29.66,WSW,247,4.7,-999.0,98,-99.99,,,0.00,Acu-Link.com,2013-05-30 11:03:00,
2013-05-30 06:18:00,76.5,75.9,29.66,ESE,112,2.7,-999.0,98,-99.99,,,0.00,Acu-Link.com,2013-05-30 11:18:00,
2013-05-30 06:33:00,76.5,75.9,29.67,SE,135,1.7,-999.0,98,-99.99,,,0.00,Acu-Link.com,2013-05-30 11:33:00,
2013-05-30 06:49:00,76.8,76.2,29.67,ESE,112,3.2,-999.0,98,-99.99,,,0.00,Acu-Link.com,2013-05-30 11:49:00,
2013-05-30 07:04:00,77.2,76.6,29.67,SSE,157,0.0,-999.0,98,-99.99,,,0.00,Acu-Link.com,2013-05-30 12:04:00,
2013-05-30 07:19:00,77.9,77.3,29.67,SE,135,2.2,-999.0,98,-99.99,,,0.00,Acu-Link.com,2013-05-30 12:19:00,
2013-05-30 07:34:00,79.3,78.7,29.67,West,270,2.2,-999.0,98,-99.99,,,0.00,Acu-Link.com,2013-05-30 12:34:00,
2013-05-30 07:49:00,81.1,80.5,29.68,South,180,3.2,-999.0,98,-99.99,,,0.00,Acu-Link.com,2013-05-30 12:49:00,
2013-05-30 08:04:00,81.5,80.9,29.69,East,90,2.7,-999.0,98,-99.99,,,0.00,Acu-Link.com,2013-05-30 13:04:00,
2013-05-30 08:19:00,81.9,81.3,29.68,SSE,157,6.3,-999.0,98,-99.99,,,0.00,Acu-Link.com,2013-05-30 13:19:00,
2013-05-30 08:34:00,82.9,81.0,29.69,West,270,2.7,-999.0,94,-99.99,,,0.00,Acu-Link.com,2013-05-30 13:34:00,
2013-05-30 08:49:00,83.5,80.6,29.69,West,270,2.7,-999.0,91,-99.99,,,0.00,Acu-Link.com,2013-05-30 13:49:00,
2013-05-30 09:05:00,82.2,79.3,29.69,SSE,157,6.8,-999.0,91,-99.99,,,0.00,Acu-Link.com,2013-05-30 14:05:00,
2013-05-30 09:20:00,84.9,80.6,29.69,West,270,2.7,-999.0,87,-99.99,,,0.00,Acu-Link.com,2013-05-30 14:20:00,
2013-05-30 09:35:00,86.4,80.6,29.69,ESE,112,6.8,-999.0,83,-99.99,,,0.00,Acu-Link.com,2013-05-30 14:35:00,
2013-05-30 09:50:00,84.7,79.3,29.70,West,270,3.7,-999.0,84,-99.99,,,0.00,Acu-Link.com,2013-05-30 14:50:00,
2013-05-30 10:05:00,85.1,79.3,29.72,East,90,2.2,-999.0,83,-99.99,,,0.00,Acu-Link.com,2013-05-30 15:05:00,
2013-05-30 10:20:00,85.1,79.7,29.73,SE,135,3.2,-999.0,84,-99.99,,,0.00,Acu-Link.com,2013-05-30 15:20:00,
2013-05-30 10:35:00,87.4,80.4,29.73,NE,45,5.8,-999.0,80,-99.99,,,0.00,Acu-Link.com,2013-05-30 15:35:00,
2013-05-30 10:50:00,88.0,80.6,29.73,East,90,3.2,-999.0,79,-99.99,,,0.00,Acu-Link.com,2013-05-30 15:50:00,
2013-05-30 11:06:00,86.0,79.1,29.74,SW,225,7.3,-999.0,80,-99.99,,,0.00,Acu-Link.com,2013-05-30 16:06:00,
2013-05-30 11:21:00,85.5,79.4,29.74,SSE,157,3.2,-999.0,82,-99.99,,,0.00,Acu-Link.com,2013-05-30 16:21:00,
2013-05-30 11:36:00,86.0,79.8,29.73,West,270,3.7,-999.0,82,-99.99,,,0.00,Acu-Link.com,2013-05-30 16:36:00,
2013-05-30 11:51:00,86.0,79.5,29.74,ESE,112,4.2,-999.0,81,-99.99,,,0.00,Acu-Link.com,2013-05-30 16:51:00,
2013-05-30 12:06:00,86.5,79.6,29.74,South,180,4.7,-999.0,80,-99.99,,,0.00,Acu-Link.com,2013-05-30 17:06:00,
2013-05-30 12:22:00,86.4,79.9,29.74,SW,225,3.7,-999.0,81,-99.99,,,0.00,Acu-Link.com,2013-05-30 17:22:00,
2013-05-30 12:37:00,86.7,80.1,29.73,SW,225,2.7,-999.0,81,-99.99,,,0.00,Acu-Link.com,2013-05-30 17:37:00,
2013-05-30 12:52:00,86.9,80.3,29.74,East,90,2.7,-999.0,81,-99.99,,,0.00,Acu-Link.com,2013-05-30 17:52:00,
2013-05-30 13:07:00,86.2,79.3,29.73,SSW,202,4.2,-999.0,80,-99.99,,,0.00,Acu-Link.com,2013-05-30 18:07:00,
2013-05-30 13:22:00,83.3,79.4,29.74,ESE,112,8.3,-999.0,88,-99.99,,,0.00,Acu-Link.com,2013-05-30 18:22:00,
2013-05-30 13:37:00,88.2,82.7,29.72,WSW,247,3.7,-999.0,84,-99.99,,,0.00,Acu-Link.com,2013-05-30 18:37:00,
2013-05-30 13:53:00,88.0,81.0,29.72,SE,135,7.3,-999.0,80,-99.99,,,0.00,Acu-Link.com,2013-05-30 18:53:00,
2013-05-30 14:08:00,87.3,80.0,29.72,ESE,112,5.3,-999.0,79,-99.99,,,0.00,Acu-Link.com,2013-05-30 19:08:00,
2013-05-30 14:23:00,86.9,80.0,29.71,ESE,112,6.8,-999.0,80,-99.99,,,0.00,Acu-Link.com,2013-05-30 19:23:00,
2013-05-30 14:38:00,86.5,80.0,29.71,ESE,112,5.8,-999.0,81,-99.99,,,0.00,Acu-Link.com,2013-05-30 19:38:00,
2013-05-30 15:08:00,88.0,80.6,29.69,SSW,202,3.2,-999.0,79,-99.99,,,0.00,Acu-Link.com,2013-05-30 20:08:00,
2013-05-30 15:23:00,86.7,80.1,29.69,ESE,112,4.2,-999.0,81,-99.99,,,0.00,Acu-Link.com,2013-05-30 20:23:00,
2013-05-30 15:39:00,86.2,80.0,29.69,SSE,157,1.7,-999.0,82,-99.99,,,0.00,Acu-Link.com,2013-05-30 20:39:00,
2013-05-30 15:54:00,86.5,80.0,29.68,SE,135,7.3,-999.0,81,-99.99,,,0.00,Acu-Link.com,2013-05-30 20:54:00,
2013-05-30 16:09:00,86.5,80.3,29.68,SE,135,5.3,-999.0,82,-99.99,,,0.00,Acu-Link.com,2013-05-30 21:09:00,
2013-05-30 16:24:00,87.1,80.2,29.67,ESE,112,1.7,-999.0,80,-99.99,,,0.00,Acu-Link.com,2013-05-30 21:24:00,
2013-05-30 16:39:00,87.4,80.4,29.67,West,270,6.8,-999.0,80,-99.99,,,0.00,Acu-Link.com,2013-05-30 21:39:00,
2013-05-30 16:54:00,85.3,79.9,29.67,ESE,112,4.2,-999.0,84,-99.99,,,0.00,Acu-Link.com,2013-05-30 21:54:00,
2013-05-30 17:09:00,85.6,79.1,29.68,South,180,13.5,-999.0,81,-99.99,,,0.00,Acu-Link.com,2013-05-30 22:09:00,
2013-05-30 17:24:00,85.1,79.7,29.66,SE,135,7.8,-999.0,84,-99.99,,,0.00,Acu-Link.com,2013-05-30 22:24:00,
2013-05-30 17:40:00,85.1,79.7,29.67,ESE,112,6.3,-999.0,84,-99.99,,,0.00,Acu-Link.com,2013-05-30 22:40:00,
2013-05-30 17:55:00,84.7,79.3,29.66,SSE,157,5.3,-999.0,84,-99.99,,,0.00,Acu-Link.com,2013-05-30 22:55:00,
2013-05-30 18:10:00,84.7,79.3,29.66,SW,225,8.9,-999.0,84,-99.99,,,0.00,Acu-Link.com,2013-05-30 23:10:00,
2013-05-30 18:25:00,84.4,79.7,29.66,WNW,292,6.8,-999.0,86,-99.99,,,0.00,Acu-Link.com,2013-05-30 23:25:00,
2013-05-30 18:40:00,83.5,79.2,29.66,SSE,157,2.7,-999.0,87,-99.99,,,0.00,Acu-Link.com,2013-05-30 23:40:00,
2013-05-30 18:55:00,84.0,79.3,29.67,NNW,337,10.4,-999.0,86,-99.99,,,0.00,Acu-Link.com,2013-05-30 23:55:00,
2013-05-30 19:10:00,83.1,79.2,29.67,SSE,157,7.3,-999.0,88,-99.99,,,0.00,Acu-Link.com,2013-05-31 00:10:00,
2013-05-30 19:25:00,82.0,79.1,29.67,SW,225,3.7,-999.0,91,-99.99,,,0.00,Acu-Link.com,2013-05-31 00:25:00,
2013-05-30 19:40:00,82.2,79.3,29.67,South,180,3.2,-999.0,91,-99.99,,,0.00,Acu-Link.com,2013-05-31 00:40:00,
2013-05-30 19:56:00,81.1,79.2,29.68,NE,45,6.8,-999.0,94,-99.99,,,0.00,Acu-Link.com,2013-05-31 00:56:00,
2013-05-30 20:11:00,81.0,79.1,29.68,South,180,4.7,-999.0,94,-99.99,,,0.00,Acu-Link.com,2013-05-31 01:11:00,
2013-05-30 20:26:00,80.6,80.0,29.68,West,270,3.7,-999.0,98,-99.99,,,0.00,Acu-Link.com,2013-05-31 01:26:00,
2013-05-30 20:41:00,80.2,79.6,29.67,WNW,292,2.7,-999.0,98,-99.99,,,0.00,Acu-Link.com,2013-05-31 01:41:00,
2013-05-30 20:56:00,80.1,79.5,29.68,East,90,6.3,-999.0,98,-99.99,,,0.00,Acu-Link.com,2013-05-31 01:56:00,
2013-05-30 21:11:00,79.7,79.1,29.68,ESE,112,4.2,-999.0,98,-99.99,,,0.00,Acu-Link.com,2013-05-31 02:11:00,
2013-05-30 21:26:00,79.5,78.9,29.69,SSW,202,3.7,-999.0,98,-99.99,,,0.00,Acu-Link.com,2013-05-31 02:26:00,
2013-05-30 21:41:00,79.3,78.7,29.70,East,90,4.2,-999.0,98,-99.99,,,0.00,Acu-Link.com,2013-05-31 02:41:00,
2013-05-30 21:56:00,79.2,78.6,29.70,ESE,112,4.2,-999.0,98,-99.99,,,0.00,Acu-Link.com,2013-05-31 02:56:00,
2013-05-30 22:12:00,79.2,78.6,29.70,South,180,5.3,-999.0,98,-99.99,,,0.00,Acu-Link.com,2013-05-31 03:12:00,
2013-05-30 22:27:00,78.8,78.2,29.71,ESE,112,2.7,-999.0,98,-99.99,,,0.00,Acu-Link.com,2013-05-31 03:27:00,
2013-05-30 22:42:00,78.8,78.2,29.72,SE,135,2.7,-999.0,98,-99.99,,,0.00,Acu-Link.com,2013-05-31 03:42:00,
2013-05-30 22:57:00,78.3,77.7,29.72,ESE,112,2.2,-999.0,98,-99.99,,,0.00,Acu-Link.com,2013-05-31 03:57:00,
2013-05-30 23:12:00,78.3,77.7,29.72,SE,135,3.2,-999.0,98,-99.99,,,0.00,Acu-Link.com,2013-05-31 04:12:00,
2013-05-30 23:27:00,78.3,77.7,29.71,SE,135,2.7,-999.0,98,-99.99,,,0.00,Acu-Link.com,2013-05-31 04:27:00,
2013-05-30 23:42:00,78.3,77.7,29.72,WSW,247,1.7,-999.0,98,-99.99,,,0.00,Acu-Link.com,2013-05-31 04:42:00,
2013-05-30 23:57:00,78.3,77.7,29.72,South,180,1.1,-999.0,98,-99.99,,,0.00,Acu-Link.com,2013-05-31 04:57:00,